Location: Krasnoyarskiy Pitomnik
(51.1333°N, 71.6167°E)
Time: 21:59:14
(UTC+00:00)

A-11 Canister half - Pass Details

Date: 20 April 2024
Orbit: 1525 x 1683 km, 47.3° (Epoch: 19 May)

Event Time Altitude Azimuth Distance (km) Brightness Sun altitude
Rises 22:16:08 0° 165° (SSE) 4,843 11.3 -15.4°
Reaches altitude 10° 22:23:22 10° 130° (SE) 3,904 11.2 -14.6°
Maximum altitude 22:24:56 10° 120° (ESE) 3,875 11.3 -14.4°
Drops below altitude 10° 22:26:31 10° 111° (ESE) 3,921 11.5 -14.2°
Sets 22:33:49 0° 77° (ENE) 4,937 12.9 -13.3°
